Location: B�hl
(48.6968°N, 8.1352°E)
Time: 02:47:59
(UTC+00:00)

ARGOS - Pass Details

Date: 08 March 2021
Orbit: 819 x 835 km, 98.4° (Epoch: 12 April)

Event Time Altitude Azimuth Distance (km) Brightness Sun altitude
Rises 17:56:44 0° 154° (SSE) 3,371 6.1 -6.5°
Reaches altitude 10° 17:59:06 10° 151° (SSE) 2,442 5.3 -6.9°
Maximum altitude 18:04:27 65° 71° (ENE) 918 3.2 -7.8°
Drops below altitude 10° 18:09:51 10° 351° (N) 2,458 5.8 -8.7°
Sets 18:12:14 0° 349° (NNW) 3,396 6.5 -9.1°
